Hourly Data Report for March 11, 2020

TORONTO CITY
ONTARIO
Current Station Operator: ECCC - MSC

43°40'00.000" N
79°24'00.000" W
112.50 m
6158355
71508
XTO

Download Data

Hourly Data (March 2020)
Hourly Data Report for March 11, 2020
TIME
LST
Temp Definition
°C
Dew Point Definition
°C
Rel Hum Definition
%
Precip. Amount Definition
mm

Wind Dir Definition
10's deg

Wind Spd Definition
km/h
Visibility Definition
km
Stn Press Definition
kPa
Hmdx Definition


Wind Chill Definition


Weather Definition


00:00 0.4 -4.5 70 0.0       100.93     LegendNANA
01:00 -0.3 -4.6 73 0.0       100.94     LegendNANA
02:00 0.0 -4.2 73 0.0       100.92     LegendNANA
03:00 -0.5 -4.7 73 0.0       100.85     LegendNANA
04:00 -0.6 -4.2 76 0.0       100.83     LegendNANA
05:00 0.0 -3.9 75 0.0       100.85     LegendNANA
06:00 0.2 -4.0 73 0.0       100.87     LegendNANA
07:00 0.5 -4.1 71 0.0       100.89     LegendNANA
08:00 1.3 -4.6 65 0.0       100.90     LegendNANA
09:00 2.0 -3.1 69 0.0       100.87     LegendNANA
10:00 2.2 -2.5 71 0.0       100.81     LegendNANA
11:00 2.9 -5.8 53 0.0       100.75     LegendNANA
12:00 2.4 -5.3 57 0.0       100.71     LegendNANA
13:00 2.9 -5.6 54 0.0       100.60     LegendNANA
14:00 2.5 -4.0 62 0.0       100.55     LegendNANA
15:00 2.4 -3.9 63 0.0       100.53     LegendNANA
16:00 1.9 -3.8 66 0.0       100.55     LegendNANA
17:00 1.9 -5.1 60 0.0       100.51     LegendNANA
18:00 1.2 -4.9 64 0.2       100.47     LegendNANA
19:00 1.0 -4.6 66 0.0       100.44     LegendNANA
20:00 1.2 -4.9 64 0.0       100.47     LegendNANA
21:00 1.4 -4.1 67 0.0       100.41     LegendNANA
22:00 1.5 -3.4 70 0.0       100.46     LegendNANA
23:00 1.4 -2.6 74 0.0       100.41     LegendNANA

Notes on Data Quality.

Legend

  • E = Estimated
  • M = Missing
  • NA = Not Available*
  • [empty] = Indicates an unobserved value
Date modified: